Location: Cahas Mountain Overlook
(37.0833°N, 80.1000°W)
Time: 11:16:41
(UTC-05:00)

Courier 1B Rocket - Pass Details

Date: 12 December 2023
Orbit: 920 x 1202 km, 28.2° (Epoch: 01 March)

Event Time Altitude Azimuth Distance (km) Brightness Sun altitude
Rises 07:25:24 0° 208° (SSW) 4,060 8.2 -0.7°
Reaches altitude 10° 07:29:37 10° 188° (S) 3,066 7.9 0.1°
Maximum altitude 07:33:49 16° 154° (SSE) 2,615 8.3 0.8°
Drops below altitude 10° 07:37:54 10° 120° (ESE) 2,974 10.1 1.5°
Sets 07:41:52 0° 99° (E) 3,875 9.7 2.2°
